Iwo Jima Airport


Codes: RJAW/IWO
Name: Iwo Jima Airport
City:
Country: Japan
Elevation: 384 ft.

Photos at Iwo Jima Airport


   Photos courtesy of SpottingLog. You can add your own sightings and photos by signing up for a free trial today.



No photos found.

Weather at Iwo Jima Airport


Time (UTC)DescriptionTempratureWindCloud coverageVisibilityPressureHumidity
25-Jun-2024 15:00Broken Clouds29°C13 mph, E53%10000m1018hPa74%
25-Jun-2024 18:00Broken Clouds29°C9 mph, E64%10000m1017hPa72%
25-Jun-2024 21:00Light Rain29°C13 mph, E14%10000m1018hPa75%
26-Jun-2024 00:00Light Rain29°C13 mph, E21%10000m1019hPa74%
26-Jun-2024 03:00Light Rain29°C13 mph, E79%10000m1018hPa71%
26-Jun-2024 06:00Overcast Clouds29°C13 mph, E89%10000m1017hPa73%
26-Jun-2024 09:00Overcast Clouds30°C16 mph, E88%10000m1017hPa74%
26-Jun-2024 12:00Broken Clouds29°C18 mph, E72%10000m1018hPa75%
26-Jun-2024 15:00Few Clouds29°C16 mph, E12%10000m1018hPa75%
26-Jun-2024 18:00Light Rain29°C11 mph, E17%10000m1017hPa79%
26-Jun-2024 21:00Moderate Rain29°C11 mph, E72%10000m1018hPa80%
27-Jun-2024 00:00Light Rain29°C16 mph, E87%10000m1018hPa77%
27-Jun-2024 03:00Light Rain29°C13 mph, E100%10000m1017hPa77%
27-Jun-2024 06:00Light Rain29°C13 mph, E100%10000m1016hPa77%
27-Jun-2024 09:00Overcast Clouds29°C16 mph, E99%10000m1016hPa78%
27-Jun-2024 12:00Overcast Clouds29°C16 mph, E87%10000m1017hPa78%
27-Jun-2024 15:00Light Rain29°C16 mph, SE47%10000m1016hPa79%
27-Jun-2024 18:00Light Rain29°C13 mph, SE31%10000m1016hPa79%
27-Jun-2024 21:00Light Rain29°C13 mph, E18%10000m1017hPa78%
28-Jun-2024 00:00Light Rain29°C13 mph, E15%10000m1017hPa78%
28-Jun-2024 03:00Light Rain29°C13 mph, E17%10000m1016hPa76%
28-Jun-2024 06:00Light Rain29°C16 mph, E15%10000m1015hPa78%
28-Jun-2024 09:00Light Rain30°C16 mph, E18%10000m1016hPa74%
28-Jun-2024 12:00Few Clouds30°C13 mph, E12%10000m1017hPa76%
28-Jun-2024 15:00Clear Sky30°C16 mph, E6%10000m1016hPa74%
28-Jun-2024 18:00Clear Sky29°C16 mph, E4%10000m1014hPa77%
28-Jun-2024 21:00Light Rain29°C16 mph, E14%10000m1015hPa74%
29-Jun-2024 00:00Light Rain29°C13 mph, E12%10000m1016hPa75%
29-Jun-2024 03:00Light Rain29°C16 mph, SE22%10000m1015hPa76%
29-Jun-2024 06:00Few Clouds30°C13 mph, SE20%10000m1013hPa77%
29-Jun-2024 09:00Few Clouds30°C16 mph, SE13%10000m1014hPa67%
29-Jun-2024 12:00Few Clouds29°C13 mph, E24%10000m1015hPa71%
29-Jun-2024 15:00Light Rain29°C11 mph, E94%6039m1014hPa76%
29-Jun-2024 18:00Moderate Rain29°C11 mph, E85%10000m1013hPa74%
29-Jun-2024 21:00Light Rain29°C13 mph, E65%10000m1014hPa70%
30-Jun-2024 00:00Light Rain29°C18 mph, E83%10000m1014hPa72%
30-Jun-2024 03:00Light Rain29°C22 mph, E89%10000m1014hPa75%
30-Jun-2024 06:00Overcast Clouds29°C18 mph, E89%10000m1013hPa78%
30-Jun-2024 09:00Overcast Clouds29°C13 mph, SE93%10000m1013hPa75%
30-Jun-2024 12:00Light Rain29°C13 mph, SE97%10000m1014hPa77%